K4XP Weather Reports


time (UTC)temp
C
wind
direction
speed
KPH
gust
KPH
rain 1hr
cm
rain 24hr
cm
rain mn
cm
humidity
%
barometer
mb
20260504024530 13 202 0.0 0.0 0.00 0.00 0.00 65 1016.7
20260504024023 13 202 0.0 0.0 0.00 0.00 0.00 65 1016.7
20260504023520 13 202 0.0 0.0 0.00 0.00 0.00 64 1016.7
20260504023013 14 201 0.0 0.0 0.00 0.00 0.00 63 1016.6
20260504022528 14 201 0.0 0.0 0.00 0.00 0.00 63 1016.6
20260504022024 14 202 0.0 0.0 0.00 0.00 0.00 62 1016.5
20260504021520 15 197 0.0 0.0 0.00 0.00 0.00 62 1016.5
20260504021015 15 196 0.0 0.0 0.00 0.00 0.00 61 1016.5
20260504020528 15 196 0.0 1.6 0.00 0.00 0.00 60 1016.4
20260504020020 15 192 0.0 1.6 0.00 0.00 0.00 59 1016.3
20260504015520 15 194 0.0 0.0 0.00 0.00 0.00 58 1016.3
20260504015016 15 176 0.0 0.0 0.00 0.00 0.00 57 1016.1
20260504014512 16 196 0.0 0.0 0.00 0.00 0.00 57 1016.1
20260504014027 16 173 0.0 0.0 0.00 0.00 0.00 57 1016.0
20260504013523 16 186 0.0 0.0 0.00 0.00 0.00 56 1016.0
20260504013018 16 160 0.0 1.6 0.00 0.00 0.00 56 1016.0
20260504012514 16 180 0.0 1.6 0.00 0.00 0.00 56 1016.0
20260504012014 16 175 0.0 0.0 0.00 0.00 0.00 55 1016.0
20260504011529 16 182 0.0 0.0 0.00 0.00 0.00 55 1016.0
20260504011024 16 190 0.0 0.0 0.00 0.00 0.00 55 1015.9
20260504010518 16 182 0.0 0.0 0.00 0.00 0.00 54 1015.9
20260504010014 16 171 0.0 0.0 0.00 0.00 0.00 54 1015.9
20260504005529 16 192 0.0 0.0 0.00 0.00 0.00 52 1015.8
20260504005021 16 211 0.0 0.0 0.00 0.00 0.00 53 1015.8
20260504004520 16 194 0.0 0.0 0.00 0.00 0.00 52 1015.8
20260504004017 16 190 0.0 0.0 0.00 0.00 0.00 52 1015.6
20260504003512 16 192 0.0 1.6 0.00 0.00 0.00 52 1015.7
20260504003029 17 183 0.0 1.6 0.00 0.00 0.00 51 1015.7
20260504002522 17 185 0.0 0.0 0.00 0.00 0.00 50 1015.6
20260504002018 17 187 0.0 0.0 0.00 0.00 0.00 49 1015.6
20260504001512 17 188 0.0 0.0 0.00 0.00 0.00 48 1015.4
20260504001025 18 189 0.0 0.0 0.00 0.00 0.00 47 1015.5
20260504000522 18 182 0.0 0.0 0.00 0.00 0.00 45 1015.4
20260504000019 18 182 0.0 0.0 0.00 0.00 0.00 45 1015.4
20260503235514 18 192 0.0 0.0 0.00 0.00 0.00 45 1015.4
20260503235029 18 190 0.0 0.0 0.00 0.00 0.00 44 1015.4
20260503234521 18 183 0.0 0.0 0.00 0.00 0.00 43 1015.5
20260503234014 18 173 0.0 1.6 0.00 0.00 0.00 43 1015.4
20260503233527 18 178 0.0 1.6 0.00 0.00 0.00 42 1015.4
20260503232515 19 201 0.0 0.0 0.00 0.00 0.00 42 1015.4
20260503232030 19 182 0.0 0.0 0.00 0.00 0.00 41 1015.4
20260503231526 19 185 0.0 0.0 0.00 0.00 0.00 41 1015.4
20260503231018 20 238 0.0 0.0 0.00 0.00 0.00 41 1015.5
20260503230512 20 241 0.0 1.6 0.00 0.00 0.00 41 1015.4
20260503230025 20 232 0.0 1.6 0.00 0.00 0.00 40 1015.4
20260503225520 20 200 0.0 0.0 0.00 0.00 0.00 40 1015.4
20260503225019 20 229 0.0 0.0 0.00 0.00 0.00 39 1015.5
20260503224515 20 205 0.0 0.0 0.00 0.00 0.00 40 1015.5
20260503224011 20 200 0.0 0.0 0.00 0.00 0.00 39 1015.5
20260503223528 20 281 0.0 0.0 0.00 0.00 0.00 39 1015.5
20260503223025 20 163 0.0 1.6 0.00 0.00 0.00 38 1015.4
20260503222520 20 192 0.0 1.6 0.00 0.00 0.00 39 1015.4
20260503222016 20 164 0.0 0.0 0.00 0.00 0.00 38 1015.5
20260503221516 20 174 0.0 0.0 0.00 0.00 0.00 40 1015.5
20260503221011 20 183 0.0 0.0 0.00 0.00 0.00 38 1015.5
20260503220527 20 209 0.0 0.0 0.00 0.00 0.00 39 1015.6
20260503220023 20 154 0.0 0.0 0.00 0.00 0.00 38 1015.5
20260503215520 20 260 0.0 0.0 0.00 0.00 0.00 39 1015.6
20260503215016 20 221 0.0 0.0 0.00 0.00 0.00 39 1015.7
20260503214513 20 196 0.0 0.0 0.00 0.00 0.00 39 1015.8
20260503214014 20 229 0.0 0.0 0.00 0.00 0.00 40 1015.8
20260503213530 20 187 0.0 0.0 0.00 0.00 0.00 39 1015.8
20260503213027 20 204 0.0 0.0 0.00 0.00 0.00 38 1015.8
20260503212523 20 209 0.0 0.0 0.00 0.00 0.00 39 1015.9
20260503212018 20 205 0.0 0.0 0.00 0.00 0.00 40 1015.9
20260503211515 20 245 0.0 1.6 0.00 0.00 0.00 39 1015.9
20260503211011 20 194 0.0 1.6 0.00 0.00 0.00 38 1015.9
20260503210528 20 241 0.0 1.6 0.00 0.00 0.00 38 1016.0
20260503210025 20 198 0.0 0.0 0.00 0.00 0.00 38 1016.0
20260503205520 20 182 0.0 1.6 0.00 0.00 0.00 39 1016.0
20260503205017 20 157 0.0 0.0 0.00 0.00 0.00 39 1016.1
20260503204513 20 178 0.0 0.0 0.00 0.00 0.00 39 1016.2
20260503204010 20 184 0.0 1.6 0.00 0.00 0.00 39 1016.2
20260503203526 20 169 0.0 1.6 0.00 0.00 0.00 38 1016.2
20260503203026 20 221 0.0 0.0 0.00 0.00 0.00 42 1016.3
20260503202523 20 205 0.0 0.0 0.00 0.00 0.00 40 1016.4
20260503202019 20 258 0.0 1.6 0.00 0.00 0.00 40 1016.6
20260503201516 20 196 0.0 1.6 0.00 0.00 0.00 39 1016.7
20260503201011 20 194 0.0 0.0 0.00 0.00 0.00 38 1016.7
20260503200527 20 302 0.0 0.0 0.00 0.00 0.00 41 1016.9
20260503200024 19 195 0.0 0.0 0.00 0.00 0.00 40 1017.0
20260503195524 19 236 0.0 0.0 0.00 0.00 0.00 40 1017.0
20260503195019 19 178 0.0 0.0 0.00 0.00 0.00 42 1017.1
20260503194515 20 167 0.0 0.0 0.00 0.00 0.00 38 1017.2
20260503194012 19 360 0.0 0.0 0.00 0.00 0.00 41 1017.1
20260503193528 19 249 0.0 1.6 0.00 0.00 0.00 39 1017.3
20260503193024 20 229 0.0 1.6 0.00 0.00 0.00 39 1017.3
20260503192521 19 271 0.0 0.0 0.00 0.00 0.00 41 1017.4
20260503192021 19 16 0.0 0.0 0.00 0.00 0.00 44 1017.5
20260503191517 18 219 0.0 0.0 0.00 0.00 0.00 40 1017.7
20260503191013 18 196 0.0 22.5 0.00 0.00 0.00 40 1017.7
20260503190530 18 194 3.2 22.5 0.00 0.00 0.00 40 1017.8
20260503190026 18 181 0.0 1.6 0.00 0.00 0.00 40 1017.8
20260503185523 18 169 0.0 1.6 0.00 0.00 0.00 40 1017.8
20260503185016 18 213 0.0 0.0 0.00 0.00 0.00 40 1017.9
20260503184516 18 196 0.0 0.0 0.00 0.00 0.00 42 1018.0
20260503184012 18 308 0.0 0.0 0.00 0.00 0.00 43 1018.0
20260503183528 18 201 0.0 0.0 0.00 0.00 0.00 42 1018.0
20260503183024 18 148 0.0 0.0 0.00 0.00 0.00 41 1018.1
20260503182520 18 196 0.0 1.6 0.00 0.00 0.00 42 1018.1
20260503182016 18 217 0.0 1.6 0.00 0.00 0.00 41 1018.2
20260503181512 18 189 0.0 0.0 0.00 0.00 0.00 43 1018.2
20260503181011 18 249 0.0 0.0 0.00 0.00 0.00 43 1018.2
20260503180528 18 197 0.0 0.0 0.00 0.00 0.00 44 1018.3
20260503180024 17 211 0.0 0.0 0.00 0.00 0.00 41 1018.3
20260503175520 18 188 0.0 0.0 0.00 0.00 0.00 44 1018.4
20260503175017 17 196 0.0 0.0 0.00 0.00 0.00 42 1018.4
20260503174513 17 85 0.0 0.0 0.00 0.00 0.00 45 1018.4
20260503174030 17 246 0.0 0.0 0.00 0.00 0.00 44 1018.6
20260503173511 17 229 0.0 3.2 0.00 0.00 0.00 42 1018.7
20260503173027 17 284 0.0 14.5 0.00 0.00 0.00 45 1018.7
20260503172523 17 224 0.0 12.9 0.00 0.00 0.00 44 1018.9
20260503172018 17 188 4.8 12.9 0.00 0.00 0.00 45 1018.9
20260503171514 17 217 0.0 6.4 0.00 0.00 0.00 44 1019.0
20260503171010 17 306 0.0 8.0 0.00 0.00 0.00 47 1019.0
20260503170526 17 297 3.2 8.0 0.00 0.00 0.00 46 1019.1
20260503151013 15 325 0.0 0.0 0.00 0.00 0.00 51 1020.2
20260503150527 15 24 0.0 0.0 0.00 0.00 0.00 52 1020.3
20260503131011 12 90 0.0 9.7 0.00 0.00 0.00 61 1020.0
20260503130528 11 72 1.6 8.0 0.00 0.00 0.00 64 1020.0
20260503110512 6 34 0.0 0.0 0.00 0.00 0.00 83 1019.1
20260503090511 8 34 0.0 0.0 0.00 0.03 0.00 72 1017.5
20260503081516 8 35 0.0 1.6 0.00 0.03 0.00 71 1017.1
20260503081012 8 35 0.0 0.0 0.00 0.03 0.00 71 1017.0
20260503080512 8 35 0.0 0.0 0.00 0.03 0.00 72 1017.1
20260503072519 7 27 0.0 3.2 0.00 0.03 0.00 75 1016.7
20260503072015 7 27 0.0 0.0 0.00 0.03 0.00 75 1016.7
20260503071530 7 27 0.0 0.0 0.00 0.03 0.00 75 1016.7
20260503071025 7 27 0.0 1.6 0.00 0.03 0.00 76 1016.6
20260503070521 7 27 0.0 1.6 0.00 0.03 0.00 75 1016.6
20260503055028 7 27 0.0 0.0 0.00 0.03 0.00 78 1016.3
20260503054524 7 27 0.0 0.0 0.00 0.03 0.00 78 1016.4
20260503054025 7 27 0.0 0.0 0.00 0.03 0.00 78 1016.3
20260503053520 7 27 0.0 0.0 0.00 0.03 0.00 78 1016.3
20260503053016 7 27 0.0 0.0 0.00 0.03 0.00 78 1016.3
20260503052512 8 27 0.0 0.0 0.00 0.03 0.00 77 1016.3
20260503052028 8 27 0.0 1.6 0.00 0.03 0.00 77 1016.3
20260503051523 8 27 0.0 1.6 0.00 0.03 0.00 77 1016.3
20260503051021 8 27 0.0 1.6 0.00 0.03 0.00 76 1016.3
20260503050520 8 27 0.0 0.0 0.00 0.03 0.00 75 1016.3
20260503050017 8 27 0.0 0.0 0.00 0.03 0.00 76 1016.3
20260503045513 8 27 0.0 0.0 0.00 0.03 0.00 75 1016.2
20260503045029 8 27 0.0 0.0 0.00 0.03 0.00 75 1016.3
20260503044525 8 27 0.0 0.0 0.00 0.03 0.00 74 1016.2
20260503044021 8 27 0.0 0.0 0.00 0.03 0.00 73 1016.2
20260503043518 9 27 0.0 0.0 0.00 0.03 0.00 74 1016.2
20260503043018 9 27 0.0 0.0 0.00 0.03 0.00 72 1016.1
20260503042513 9 27 0.0 0.0 0.00 0.03 0.00 70 1016.1
20260503042029 10 27 0.0 0.0 0.00 0.03 0.00 69 1016.1
20260503041525 10 27 0.0 0.0 0.00 0.03 0.00 68 1016.0
20260503041021 10 27 0.0 0.0 0.00 0.03 0.00 67 1016.0
20260503040517 10 27 0.0 1.6 0.00 0.03 0.00 65 1015.9
20260503040013 10 27 0.0 1.6 0.00 0.03 0.00 64 1015.9
20260503035512 10 27 0.0 0.0 0.00 0.03 0.03 64 1015.8
20260503035029 11 27 0.0 0.0 0.00 0.03 0.03 64 1015.7
20260503034525 11 27 0.0 0.0 0.00 0.03 0.03 63 1015.6
20260503034020 11 27 0.0 0.0 0.00 0.03 0.03 64 1015.5
20260503033516 11 27 0.0 0.0 0.00 0.03 0.03 61 1015.5
20260503033013 11 27 0.0 0.0 0.00 0.03 0.03 60 1015.5
20260503032529 11 27 0.0 0.0 0.00 0.03 0.03 59 1015.4
20260503032028 12 27 0.0 0.0 0.00 0.03 0.03 59 1015.4
20260503031524 12 27 0.0 0.0 0.00 0.03 0.03 57 1015.3
20260503031019 12 27 0.0 0.0 0.00 0.03 0.03 57 1015.3
20260503030515 12 27 0.0 0.0 0.00 0.03 0.03 56 1015.3
20260503030030 12 27 0.0 0.0 0.00 0.03 0.03 56 1015.3
20260503025524 13 27 0.0 0.0 0.00 0.03 0.03 55 1015.2
20260503025021 13 27 0.0 0.0 0.00 0.03 0.03 52 1015.2